Lapse_Rate
5.4 5.8 6.3 6.1 6.4 6.4 6.4 6.1 6.0 6.0 6.2 6.2 6.2 6.4 6.5 6.5 6.5 6.4 6.3 6.5 6.6 6.6 6.9 6.8 6.8 7.0 7.3 7.5 7.2 6.9 6.7 6.7 6.3 6.5 6.8 7.0 7.1 7.0 7.1 7.4 6.8 6.5 6.9
5.4 6.0 6.2 5.9 6.1 6.0 6.3 6.3 6.4 6.1 6.2 6.4 6.5 6.5 6.5 6.4 6.6 6.4 6.4 6.4 6.5 6.5 6.3 6.5 6.8 6.8 6.9 7.2 6.8 6.7 6.8 6.7 6.5 6.5 7.2 7.2 7.1 7.0 6.8 7.4 6.7 5.9 6.1
5.3 5.3 5.5 5.5 5.9 6.1 6.0 6.1 6.6 6.1 6.1 6.3 6.7 6.5 6.4 6.9 6.7 6.7 6.8 7.0 6.6 6.3 6.4 6.6 6.6 6.6 6.5 6.5 6.7 6.9 6.7 6.7 7.0 6.7 6.6 6.5 6.8 6.8 6.7 6.7 6.4 5.7 6.0
5.0 4.7 4.7 5.3 5.7 6.1 6.1 6.0 6.3 6.5 6.4 6.4 6.4 6.4 6.7 6.6 6.6 6.6 6.7 6.8 7.0 7.0 6.9 6.5 6.5 6.6 6.6 6.6 6.9 6.5 7.0 7.3 7.8 8.2 6.3 6.4 7.1 6.9 7.0 6.8 6.4 6.2 6.0
5.3 4.5 4.4 4.8 5.1 5.5 5.7 5.9 5.9 6.1 6.4 6.4 6.5 6.5 6.4 6.9 6.7 6.6 6.5 6.5 6.7 7.2 7.5 6.7 6.6 6.4 6.3 6.3 6.7 6.9 7.0 6.9 5.9 6.5 7.0 6.0 6.4 6.7 6.5 6.6 6.0 5.9 5.9
4.4 4.0 4.5 4.9 5.2 5.5 5.7 5.7 5.8 5.9 6.2 6.7 6.6 6.6 6.6 6.4 6.7 6.7 6.4 6.2 6.4 6.8 6.6 6.5 6.3 6.1 5.9 6.2 6.3 7.1 6.9 6.4 6.0 5.8 5.8 5.9 5.6 6.1 6.2 6.2 5.9 6.3 6.3
4.0 4.1 4.4 4.8 5.1 5.5 5.6 5.8 5.8 6.0 6.0 5.9 6.4 6.6 6.6 6.5 6.3 6.5 6.2 6.1 6.2 6.2 6.4 6.5 6.3 5.9 5.7 5.7 6.5 6.8 7.5 7.0 5.5 5.9 5.6 5.2 5.0 5.6 5.8 6.0 6.0 6.3 6.5
3.6 3.8 4.4 4.7 5.0 5.5 5.7 5.9 5.9 6.0 6.1 5.9 5.9 6.4 6.6 6.5 6.4 6.3 6.3 6.1 6.3 6.2 6.1 6.1 6.5 6.1 5.9 5.5 5.3 5.8 5.9 7.4 6.6 6.5 5.4 4.4 4.5 5.2 5.6 6.1 6.1 6.0 5.9
4.7 3.8 3.6 4.2 4.9 5.6 5.7 5.9 5.9 5.9 5.9 6.2 6.0 6.0 6.2 6.5 6.6 6.4 6.1 6.0 6.3 6.0 6.1 6.0 5.7 5.4 5.4 5.2 5.0 5.0 5.4 6.2 5.3 6.3 6.8 4.6 4.5 5.1 5.4 5.5 5.6 5.9 6.1
4.6 3.7 3.3 3.5 4.4 4.8 5.1 5.4 5.6 5.8 5.7 5.9 5.9 6.5 7.1 6.8 6.7 6.7 6.5 6.4 6.1 6.2 6.0 5.7 5.7 5.3 5.2 5.2 5.1 5.3 5.8 5.8 4.4 4.5 6.1 5.8 5.6 5.0 5.0 5.1 5.3 5.4 5.6
5.5 4.6 4.5 4.1 3.8 3.5 4.0 4.5 5.6 5.6 5.7 5.8 6.0 6.5 6.8 6.5 6.7 6.8 6.3 6.8 6.7 6.3 5.9 6.0 5.7 5.5 5.6 5.6 5.7 5.9 6.1 5.5 4.8 4.1 5.8 5.8 6.6 5.2 5.0 4.8 5.0 5.2 5.0
5.6 5.9 6.3 5.3 3.1 3.0 4.7 4.0 5.1 5.7 5.9 5.7 5.8 7.1 6.6 6.2 6.5 6.6 6.7 7.1 6.8 6.6 6.5 6.1 5.9 5.9 6.0 5.2 5.3 5.9 5.4 5.6 5.1 4.4 5.0 6.1 5.3 6.4 5.0 4.6 4.7 4.8 4.8
6.6 7.5 7.8 6.2 4.4 3.4 4.5 4.2 4.5 5.5 5.3 5.5 6.7 6.3 5.9 5.8 6.6 6.6 6.3 6.6 6.2 6.5 5.9 6.6 6.4 6.1 5.8 5.8 4.9 5.0 5.0 5.2 5.8 5.5 5.9 4.5 5.9 7.7 6.4 5.1 4.5 4.6 4.7
6.2 6.4 6.6 6.2 5.4 4.6 5.7 4.3 4.1 5.1 4.5 4.3 5.0 4.9 4.8 4.2 4.3 5.0 5.1 5.5 5.1 5.5 4.9 4.7 5.0 5.3 5.4 5.5 5.9 4.7 4.6 4.4 5.7 6.0 5.3 5.8 5.2 5.9 6.8 7.5 5.5 4.8 5.1
6.6 5.7 6.4 5.4 4.5 5.0 5.9 5.4 4.5 4.2 4.8 5.3 5.3 4.8 4.4 4.1 3.5 3.8 4.4 5.5 4.8 5.5 5.5 5.1 5.2 5.5 5.5 6.4 6.1 5.1 4.0 5.5 6.0 5.8 5.0 5.8 5.6 5.7 6.1 6.3 6.1 5.2 5.2
6.7 5.8 5.9 5.0 4.6 5.3 5.5 4.4 4.4 4.6 4.8 4.7 4.6 4.4 4.4 4.5 4.2 4.4 4.3 4.8 5.3 6.0 5.9 5.6 5.1 5.0 4.9 5.6 4.9 6.2 6.2 6.4 6.4 6.3 4.7 4.5 5.3 5.6 6.2 6.4 5.9 5.5 5.3
5.3 5.3 5.1 5.0 5.3 4.8 4.9 5.0 4.3 4.4 4.5 4.0 5.0 4.8 4.2 4.2 4.1 4.1 3.6 3.7 4.0 5.7 6.0 5.7 4.9 4.8 4.6 5.1 4.7 5.3 5.5 5.5 5.6 5.9 6.0 5.6 5.5 5.1 5.5 6.0 5.7 5.6 5.5
1.2 3.3 4.1 8.2 5.8 4.7 4.7 4.2 3.6 3.4 2.5 3.7 3.7 4.4 4.2 3.9 3.8 2.9 3.0 3.5 4.5 5.2 5.5 4.2 3.8 4.8 4.0 4.2 4.5 4.6 4.9 5.5 5.4 6.3 6.1 6.0 5.6 5.0 4.8 5.2 5.4 5.5 5.6
2.5 2.1 4.2 4.3 6.1 5.1 5.2 4.9 4.2 3.9 3.0 3.7 4.3 4.4 4.2 4.0 4.3 3.4 3.5 4.0 5.0 4.5 3.4 3.8 3.8 3.9 3.8 3.8 4.0 4.3 5.4 5.1 4.5 6.9 5.9 6.2 6.0 5.3 5.1 4.7 4.7 5.0 5.5
1.8 1.7 1.6 4.1 4.1 5.4 5.3 5.1 4.6 3.9 3.0 3.4 3.8 4.0 4.6 4.5 4.1 4.2 4.0 4.5 4.5 4.6 3.1 3.5 3.9 3.9 3.7 3.8 5.0 5.9 4.1 3.3 4.5 5.2 6.2 6.3 6.3 6.0 6.1 4.8 4.6 4.5 4.6
2.2 0.9 1.6 3.4 5.3 4.5 5.2 5.3 4.8 4.9 4.4 3.5 3.1 3.6 3.8 3.5 3.7 3.6 3.5 3.6 4.8 3.8 4.3 4.8 4.8 4.2 3.8 4.1 4.1 3.2 3.8 3.8 3.5 2.6 3.8 3.4 4.1 6.2 6.4 6.6 4.6 4.3 4.7
2.3 1.8 1.3 5.5 4.9 5.1 4.8 5.0 5.7 5.0 4.6 4.7 4.4 4.1 3.4 3.5 3.9 3.5 3.0 3.9 2.6 2.5 2.0 4.2 4.7 4.5 4.3 4.3 4.8 4.6 4.2 3.2 2.3 2.3 1.9 3.0 3.9 5.0 5.6 5.6 5.4 4.7 4.9
1.5 2.5 5.1 5.1 5.0 5.1 5.4 5.6 6.3 5.4 4.1 3.2 3.9 2.8 2.9 3.3 4.8 5.3 5.4 4.1 2.8 2.4 2.1 3.9 4.5 4.9 4.4 4.1 4.7 5.3 4.1 3.4 3.4 3.5 2.8 3.6 3.5 2.3 2.1 1.5 3.6 4.7 4.8
2.4 3.3 5.4 4.4 4.7 5.1 5.9 6.2 5.7 4.7 5.5 4.9 2.1 1.9 2.0 3.4 4.1 4.3 5.9 5.3 4.3 3.7 4.2 4.2 5.4 4.5 4.7 3.0 4.0 5.5 5.0 4.3 3.6 3.4 3.8 2.3 2.0 3.2 1.5 1.0 2.4 2.4 3.2
3.8 5.3 5.9 5.1 4.9 5.3 5.3 5.1 4.5 4.7 3.7 2.8 1.9 2.3 2.9 2.8 3.8 3.7 4.6 4.7 4.7 4.3 4.6 3.9 4.5 4.5 4.1 4.4 3.9 3.8 4.1 3.0 4.1 4.0 3.0 3.2 1.4 1.0 0.6 0.5 1.7 1.9 1.1
7.1 6.7 5.9 5.1 5.7 5.9 5.8 5.3 5.3 5.3 4.1 3.3 3.7 3.6 4.4 3.9 3.9 3.3 3.6 2.8 3.6 4.5 4.6 4.5 4.6 4.3 4.0 4.1 4.0 3.5 4.1 4.0 3.0 4.2 4.1 3.6 4.1 2.5 1.5 1.7 1.7 1.6 2.1
Wind_Speed
9 11 17 17 15 17 17 17 16 15 14 14 14 14 15 15 17 17 19 19 19 19 21 20 19 19 19 19 19 20 20 20 22 22 21 19 19 17 15 17 15 15 14
14 15 17 17 17 17 18 17 15 15 13 12 11 14 14 14 15 16 15 16 17 19 18 18 18 17 17 18 19 18 17 18 19 21 18 17 15 15 15 16 16 15 16
15 17 16 16 17 17 16 16 16 16 14 13 14 13 13 13 15 14 15 14 15 15 16 17 16 15 15 14 17 17 15 15 17 20 19 13 16 18 17 17 17 17 17
18 18 16 15 18 18 17 17 16 15 14 13 12 12 14 15 15 14 15 14 15 15 15 13 13 13 13 12 15 15 14 12 14 17 13 12 16 17 16 17 17 18 16
17 19 18 16 16 17 16 15 15 13 12 11 11 12 13 14 15 13 14 14 13 14 13 13 12 11 11 9 13 14 13 12 7 4 5 18 14 15 16 15 17 17 15
17 19 19 18 17 16 15 14 13 12 11 12 11 11 12 13 13 13 13 13 12 13 13 12 11 10 8 8 8 11 11 15 8 4 5 17 16 16 14 15 17 15 15
16 20 18 17 16 16 14 13 13 12 11 10 11 10 11 11 13 12 12 12 12 12 11 11 10 9 6 3 5 6 9 10 11 10 11 16 15 15 16 15 15 15 13
18 19 18 18 16 15 14 12 12 12 10 9 9 10 10 11 11 12 10 11 11 11 11 11 10 9 7 3 3 3 4 7 12 13 11 16 17 16 15 14 14 14 13
20 16 16 15 15 15 13 12 11 11 10 8 7 7 8 8 9 10 11 11 11 11 10 9 10 9 6 3 2 5 7 7 16 12 6 14 17 17 17 15 13 13 11
16 14 15 16 17 14 14 14 12 11 11 9 7 6 5 8 8 9 9 10 10 9 10 9 8 7 6 5 4 6 4 7 17 12 11 8 20 20 18 16 15 14 12
13 14 14 14 13 18 16 13 14 13 11 9 8 7 7 8 9 10 10 11 10 10 10 9 9 9 7 7 7 7 8 8 5 12 6 6 19 21 20 18 16 15 15
13 13 13 13 13 12 9 12 13 11 9 8 8 6 3 6 11 11 11 11 10 10 9 10 10 9 8 9 12 12 11 12 7 4 7 16 19 21 23 22 19 17 15
8 8 14 12 14 10 7 9 9 12 12 7 6 3 11 8 7 10 9 9 9 10 9 10 10 10 11 11 8 14 13 12 11 16 11 16 18 18 20 23 23 21 18
10 11 12 12 13 13 11 10 9 9 11 9 10 9 6 5 3 3 6 8 11 12 12 12 12 13 11 12 11 11 10 11 9 10 17 25 29 24 20 20 24 22 21
13 9 10 11 9 7 5 9 7 8 8 12 11 10 12 3 2 5 5 5 11 11 10 5 8 8 7 9 10 13 12 13 10 11 16 21 23 27 25 24 23 23 23
15 8 10 10 8 8 5 6 4 5 4 7 10 9 9 8 4 3 1 2 3 10 7 6 5 4 4 5 4 10 8 10 9 12 16 18 29 25 25 24 25 24 24
5 14 9 10 7 7 7 6 8 9 8 4 6 14 12 12 7 4 1 2 6 5 5 3 6 5 3 4 6 6 7 11 9 6 14 14 18 23 24 21 23 24 26
11 4 9 8 11 8 7 5 6 9 10 8 9 10 10 9 9 6 1 4 2 3 3 2 3 2 3 4 4 5 5 6 9 11 11 16 15 14 20 23 25 25 25
4 6 5 3 12 11 7 6 7 7 6 7 7 8 10 8 9 6 4 5 7 4 3 2 2 3 3 4 4 5 5 4 6 11 7 11 15 15 13 23 26 26 25
2 1 7 3 7 8 7 4 4 3 4 10 8 8 11 10 8 6 6 7 7 3 4 4 4 3 4 4 3 5 5 5 4 4 5 8 12 16 17 16 17 20 27
14 11 8 7 9 6 3 2 2 4 5 3 5 11 13 13 8 7 4 4 3 1 4 6 3 5 4 3 1 3 5 4 4 4 5 5 6 16 16 20 15 17 18
11 14 17 11 9 7 4 4 3 3 3 3 2 3 4 11 7 7 6 5 5 1 4 5 5 2 3 4 4 2 3 3 4 3 4 4 7 6 3 7 14 12 13
23 22 12 11 8 6 5 1 2 2 3 2 4 3 4 17 15 8 8 5 4 2 4 5 5 5 4 3 4 3 2 2 2 2 5 2 1 2 2 8 3 8 3
18 12 8 10 8 7 7 2 1 2 1 1 3 1 2 13 9 12 9 3 4 4 5 4 3 3 3 5 1 3 2 3 2 3 3 2 3 4 1 3 4 6 9
13 11 10 12 8 6 6 4 3 2 2 3 4 7 5 4 10 4 5 3 3 2 3 5 4 4 2 3 3 2 1 1 3 3 3 2 2 3 3 5 4 5 3
15 13 10 9 7 7 6 5 4 1 3 4 3 5 0 2 3 4 6 4 4 3 4 4 5 5 5 5 4 3 3 2 2 3 3 3 4 4 5 6 2 5 8
Wind_Direction
125 141 117 116 115 105 104 108 108 106 101 91 83 83 81 82 84 83 86 98 95 91 98 102 103 101 99 98 104 112 108 106 104 101 103 107 110 113 113 111 113 112 106
133 128 113 111 107 103 106 107 110 110 105 95 93 89 86 87 90 90 92 96 99 101 99 100 102 96 97 100 109 115 109 107 110 104 104 109 109 113 116 108 111 106 107
126 123 121 120 113 114 108 106 103 104 102 98 92 93 92 94 100 101 102 101 98 100 105 107 102 101 98 104 105 111 118 121 123 114 105 101 107 110 114 110 114 114 115
132 126 124 121 110 108 103 101 99 100 98 96 97 94 90 92 106 108 107 103 108 109 113 111 109 111 116 117 115 119 125 117 132 102 116 120 107 114 118 115 118 117 115
130 127 129 120 112 107 105 101 100 98 97 94 102 99 99 98 104 106 106 110 111 116 118 120 121 122 116 112 118 124 113 103 65 9 74 116 120 120 120 124 116 114 116
122 126 129 125 119 115 111 107 102 99 91 97 98 102 105 108 108 109 113 119 119 116 121 123 119 120 114 124 113 112 111 97 55 78 150 131 127 131 135 121 114 121 126
126 132 131 131 128 125 122 120 115 108 102 93 95 104 111 113 108 115 116 119 122 123 126 128 132 126 126 122 111 119 123 136 199 226 139 126 129 134 127 125 128 131 132
129 135 137 139 138 136 134 132 129 123 115 111 107 109 116 121 121 120 126 122 125 134 139 137 133 143 148 140 12 30 56 61 47 144 155 138 148 140 137 140 145 142 143
128 136 141 146 150 147 146 147 147 141 134 132 128 123 123 129 133 136 135 136 138 142 148 147 151 154 152 151 316 326 359 26 68 90 134 140 157 150 151 154 148 147 155
141 151 156 159 159 164 167 167 167 160 155 156 156 156 156 150 153 153 150 146 150 153 154 155 164 167 174 183 236 278 310 323 118 102 113 188 173 160 160 162 162 166 164
153 159 161 163 173 171 174 183 181 176 174 174 183 187 195 195 194 180 177 163 162 162 169 174 178 186 195 213 240 270 290 288 172 122 165 169 197 169 166 172 173 175 172
161 164 169 165 167 173 166 181 184 184 174 193 218 194 254 194 194 191 182 178 180 183 183 189 195 199 207 222 232 233 238 258 214 227 208 204 217 188 173 174 179 182 182
158 148 170 159 163 184 167 182 189 179 174 195 214 126 100 96 179 197 191 187 190 199 203 207 212 211 213 221 230 207 229 235 212 197 201 205 220 221 192 181 180 187 191
157 147 158 144 166 191 171 180 179 173 167 189 196 147 114 116 135 195 202 204 194 206 208 219 207 213 221 216 213 235 247 247 217 206 201 194 203 207 212 206 189 189 194
157 164 154 146 144 148 144 152 160 179 175 183 163 144 124 187 175 210 210 207 203 208 206 209 208 223 235 224 219 224 241 241 222 195 188 200 203 207 207 206 201 196 197
163 147 138 135 135 120 115 137 174 161 195 153 157 174 163 181 190 157 192 304 222 195 197 194 208 211 231 240 261 244 246 245 249 165 204 206 210 213 215 205 206 205 203
324 139 138 136 135 133 137 123 142 167 160 151 172 178 179 182 186 193 211 333 304 178 194 214 242 237 241 259 253 254 255 260 265 221 195 208 212 217 214 211 213 216 211
329 82 141 166 152 155 153 145 165 169 160 193 200 196 188 189 181 169 203 271 260 213 209 196 231 229 236 252 256 253 243 237 237 249 231 208 215 208 209 211 215 221 221
238 302 298 162 176 163 173 158 193 199 193 199 223 212 194 206 204 181 204 248 252 263 260 259 230 186 226 244 253 253 263 221 225 237 236 206 213 210 209 218 216 218 224
188 258 297 269 252 156 166 171 153 182 216 221 201 206 215 216 225 195 204 231 240 202 239 214 221 224 229 234 258 260 256 252 232 231 249 236 232 215 211 211 218 224 223
347 340 262 269 167 125 128 188 149 189 206 224 204 204 214 217 214 201 217 233 193 39 275 209 217 231 273 245 253 286 267 254 216 212 245 185 233 230 216 220 198 216 226
297 270 264 206 143 145 164 219 203 172 215 263 221 222 261 349 292 242 214 217 139 111 349 275 236 260 246 209 214 202 308 340 304 241 247 258 261 283 224 186 215 205 222
201 230 214 142 148 159 174 219 251 88 87 341 54 66 42 349 278 267 208 171 162 147 226 250 240 223 255 280 237 183 342 261 310 329 254 256 129 155 121 322 333 210 358
199 201 162 147 159 172 185 188 261 187 168 98 59 121 231 180 238 275 233 223 165 194 234 261 249 258 220 259 269 196 180 164 224 322 354 3 251 255 135 319 266 18 25
185 184 149 151 165 177 176 157 102 49 83 91 35 314 234 243 262 252 117 70 16 247 242 263 272 275 254 235 230 276 304 349 181 181 274 273 322 289 233 255 169 148 89
156 145 141 133 144 135 145 144 136 105 37 54 152 219 109 153 58 61 66 45 9 6 312 293 294 276 269 267 261 254 222 208 256 232 243 243 231 231 236 257 193 160 178